Year,Month,Day,Hour,Minute,Value (Times are PST for temperature in C)
2012,07,05,00,00,9.90
2012,07,05,00,01,9.90
2012,07,05,00,02,9.90
2012,07,05,00,03,9.90
2012,07,05,00,04,9.90
2012,07,05,00,05,9.80
2012,07,05,00,06,9.80
2012,07,05,00,07,9.80
2012,07,05,00,08,9.80
2012,07,05,00,09,9.80
2012,07,05,00,10,9.80
2012,07,05,00,11,9.70
2012,07,05,00,12,9.70
2012,07,05,00,13,9.70
2012,07,05,00,14,9.70
2012,07,05,00,15,9.70
2012,07,05,00,16,9.70
2012,07,05,00,17,9.70
2012,07,05,00,18,9.70
2012,07,05,00,19,9.70
2012,07,05,00,20,9.70
2012,07,05,00,21,9.80
2012,07,05,00,22,9.80
2012,07,05,00,23,9.80
2012,07,05,00,24,9.80
2012,07,05,00,25,9.80
2012,07,05,00,26,9.90
2012,07,05,00,27,9.90
2012,07,05,00,28,9.90
2012,07,05,00,29,9.90
2012,07,05,00,30,9.90
2012,07,05,00,31,9.90
2012,07,05,00,32,9.90
2012,07,05,00,33,9.90
2012,07,05,00,34,9.90
2012,07,05,00,35,9.90
2012,07,05,00,36,9.90
2012,07,05,00,37,9.90
2012,07,05,00,38,9.90
2012,07,05,00,39,9.90
2012,07,05,00,40,9.90
2012,07,05,00,41,9.90
2012,07,05,00,42,9.90
2012,07,05,00,43,9.90
2012,07,05,00,44,10.00
2012,07,05,00,45,10.10
2012,07,05,00,46,10.10
2012,07,05,00,47,10.10
2012,07,05,00,48,10.10
2012,07,05,00,49,10.10
2012,07,05,00,50,10.10
2012,07,05,00,51,10.10
2012,07,05,00,52,10.10
2012,07,05,00,53,10.10
2012,07,05,00,54,10.10
2012,07,05,00,55,10.10
2012,07,05,00,56,10.10
2012,07,05,00,57,10.10
2012,07,05,00,58,10.10
2012,07,05,00,59,10.10
2012,07,05,01,00,10.10
2012,07,05,01,01,10.10
2012,07,05,01,02,10.10
2012,07,05,01,03,10.10
2012,07,05,01,04,10.10
2012,07,05,01,05,10.10
2012,07,05,01,06,10.10
2012,07,05,01,07,10.10
2012,07,05,01,08,10.10
2012,07,05,01,09,10.10
2012,07,05,01,10,10.10
2012,07,05,01,11,10.10
2012,07,05,01,12,10.10
2012,07,05,01,13,10.10
2012,07,05,01,14,10.10
2012,07,05,01,15,10.10
2012,07,05,01,16,10.10
2012,07,05,01,17,10.10
2012,07,05,01,18,10.10
2012,07,05,01,19,10.10
2012,07,05,01,20,10.10
2012,07,05,01,21,10.10
2012,07,05,01,22,10.10
2012,07,05,01,23,10.10
2012,07,05,01,24,10.10
2012,07,05,01,25,10.10
2012,07,05,01,26,10.10
2012,07,05,01,27,10.10
2012,07,05,01,28,10.10
2012,07,05,01,29,10.10
2012,07,05,01,30,10.10
2012,07,05,01,31,10.10
2012,07,05,01,32,10.00
2012,07,05,01,33,9.90
2012,07,05,01,34,9.90
2012,07,05,01,35,9.90
2012,07,05,01,36,9.90
2012,07,05,01,37,9.90
2012,07,05,01,38,9.90
2012,07,05,01,39,9.90
2012,07,05,01,40,9.80
2012,07,05,01,41,9.80
2012,07,05,01,42,9.80
2012,07,05,01,43,9.70
2012,07,05,01,44,9.70
2012,07,05,01,45,9.70
2012,07,05,01,46,9.70
2012,07,05,01,47,9.70
2012,07,05,01,48,9.70
2012,07,05,01,49,9.70
2012,07,05,01,50,9.60
2012,07,05,01,51,9.60
2012,07,05,01,52,9.60
2012,07,05,01,53,9.60
2012,07,05,01,54,9.60
2012,07,05,01,55,9.50
2012,07,05,01,56,9.40
2012,07,05,01,57,9.40
2012,07,05,01,58,9.30
2012,07,05,01,59,9.20
2012,07,05,02,00,9.10
2012,07,05,02,01,9.10
2012,07,05,02,02,9.00
2012,07,05,02,03,9.00
2012,07,05,02,04,9.00
2012,07,05,02,05,9.00
2012,07,05,02,06,9.00
2012,07,05,02,07,8.90
2012,07,05,02,08,8.90
2012,07,05,02,09,8.90
2012,07,05,02,10,8.90
2012,07,05,02,11,8.90
2012,07,05,02,12,8.90
2012,07,05,02,13,8.90
2012,07,05,02,14,8.90
2012,07,05,02,15,8.90
2012,07,05,02,16,8.90
2012,07,05,02,17,8.90
2012,07,05,02,18,8.90
2012,07,05,02,19,8.90
2012,07,05,02,20,8.90
2012,07,05,02,21,8.90
2012,07,05,02,22,8.80
2012,07,05,02,23,8.70
2012,07,05,02,24,8.60
2012,07,05,02,25,8.50
2012,07,05,02,26,8.40
2012,07,05,02,27,8.30
2012,07,05,02,28,8.20
2012,07,05,02,29,8.20
2012,07,05,02,30,8.20
2012,07,05,02,31,8.10
2012,07,05,02,32,8.00
2012,07,05,02,33,8.00
2012,07,05,02,34,8.00
2012,07,05,02,35,7.90
2012,07,05,02,36,7.90
2012,07,05,02,37,7.80
2012,07,05,02,38,7.80
2012,07,05,02,39,7.80
2012,07,05,02,40,7.80
2012,07,05,02,41,7.80
2012,07,05,02,42,7.80
2012,07,05,02,43,7.80
2012,07,05,02,44,7.80
2012,07,05,02,45,7.80
2012,07,05,02,46,7.80
2012,07,05,02,47,7.80
2012,07,05,02,48,7.80
2012,07,05,02,49,7.80
2012,07,05,02,50,7.80
2012,07,05,02,51,7.80
2012,07,05,02,52,7.80
2012,07,05,02,53,7.80
2012,07,05,02,54,7.80
2012,07,05,02,55,7.80
2012,07,05,02,56,7.80
2012,07,05,02,57,7.80
2012,07,05,02,58,7.80
2012,07,05,02,59,7.70
2012,07,05,03,00,7.70
2012,07,05,03,01,7.70
2012,07,05,03,02,7.60
2012,07,05,03,03,7.60
2012,07,05,03,04,7.60
2012,07,05,03,05,7.60
2012,07,05,03,06,7.50
2012,07,05,03,07,7.50
2012,07,05,03,08,7.50
2012,07,05,03,09,7.50
2012,07,05,03,10,7.50
2012,07,05,03,11,7.50
2012,07,05,03,12,7.50
2012,07,05,03,13,7.50
2012,07,05,03,14,7.50
2012,07,05,03,15,7.50
2012,07,05,03,16,7.60
2012,07,05,03,17,7.60
2012,07,05,03,18,7.60
2012,07,05,03,19,7.70
2012,07,05,03,20,7.70
2012,07,05,03,21,7.70
2012,07,05,03,22,7.70
2012,07,05,03,23,7.70
2012,07,05,03,24,7.80
2012,07,05,03,25,7.80
2012,07,05,03,26,7.90
2012,07,05,03,27,7.90
2012,07,05,03,28,7.90
2012,07,05,03,29,8.00
2012,07,05,03,30,8.00
2012,07,05,03,31,8.00
2012,07,05,03,32,8.00
2012,07,05,03,33,8.00
2012,07,05,03,34,8.00
2012,07,05,03,35,8.00
2012,07,05,03,36,8.00
2012,07,05,03,37,7.90
2012,07,05,03,38,7.90
2012,07,05,03,39,7.80
2012,07,05,03,40,7.80
2012,07,05,03,41,7.80
2012,07,05,03,42,7.80
2012,07,05,03,43,7.80
2012,07,05,03,44,7.80
2012,07,05,03,45,7.80
2012,07,05,03,46,7.80
2012,07,05,03,47,7.80
2012,07,05,03,48,7.70
2012,07,05,03,49,7.70
2012,07,05,03,50,7.60
2012,07,05,03,51,7.50
2012,07,05,03,52,7.50
2012,07,05,03,53,7.50
2012,07,05,03,54,7.40
2012,07,05,03,55,7.40
2012,07,05,03,56,7.30
2012,07,05,03,57,7.30
2012,07,05,03,58,7.30
2012,07,05,03,59,7.30
2012,07,05,04,00,7.30
2012,07,05,04,01,7.30
2012,07,05,04,02,7.30
2012,07,05,04,03,7.30
2012,07,05,04,04,7.20
2012,07,05,04,05,7.20
2012,07,05,04,06,7.20
2012,07,05,04,07,7.10
2012,07,05,04,08,7.10
2012,07,05,04,09,7.10
2012,07,05,04,10,7.10
2012,07,05,04,11,7.00
2012,07,05,04,12,7.00
2012,07,05,04,13,7.00
2012,07,05,04,14,7.00
2012,07,05,04,15,7.00
2012,07,05,04,16,6.90
2012,07,05,04,17,6.90
2012,07,05,04,18,6.90
2012,07,05,04,19,6.90
2012,07,05,04,20,6.90
2012,07,05,04,21,6.90
2012,07,05,04,22,6.90
2012,07,05,04,23,6.80
2012,07,05,04,24,6.80
2012,07,05,04,25,6.80
2012,07,05,04,26,6.80
2012,07,05,04,27,6.80
2012,07,05,04,28,6.80
2012,07,05,04,29,6.80
2012,07,05,04,30,6.90
2012,07,05,04,31,6.90
2012,07,05,04,32,7.00
2012,07,05,04,33,7.00
2012,07,05,04,34,7.00
2012,07,05,04,35,7.00
2012,07,05,04,36,7.10
2012,07,05,04,37,7.10
2012,07,05,04,38,7.10
2012,07,05,04,39,7.10
2012,07,05,04,40,7.20
2012,07,05,04,41,7.20
2012,07,05,04,42,7.20
2012,07,05,04,43,7.30
2012,07,05,04,44,7.30
2012,07,05,04,45,7.30
2012,07,05,04,46,7.20
2012,07,05,04,47,7.20
2012,07,05,04,48,7.10
2012,07,05,04,49,7.00
2012,07,05,04,50,7.00
2012,07,05,04,51,6.90
2012,07,05,04,52,6.90
2012,07,05,04,53,6.90
2012,07,05,04,54,6.80
2012,07,05,04,55,6.80
2012,07,05,04,56,6.80
2012,07,05,04,57,6.80
2012,07,05,04,58,6.80
2012,07,05,04,59,6.70
2012,07,05,05,00,6.70
2012,07,05,05,01,6.70
2012,07,05,05,02,6.70
2012,07,05,05,03,6.70
2012,07,05,05,04,6.70
2012,07,05,05,05,6.60
2012,07,05,05,06,6.60
2012,07,05,05,07,6.60
2012,07,05,05,08,6.60
2012,07,05,05,09,6.60
2012,07,05,05,10,6.60
2012,07,05,05,11,6.60
2012,07,05,05,12,6.60
2012,07,05,05,13,6.70
2012,07,05,05,14,6.70
2012,07,05,05,15,6.70
2012,07,05,05,16,6.70
2012,07,05,05,17,6.70
2012,07,05,05,18,6.70
2012,07,05,05,19,6.80
2012,07,05,05,20,6.80
2012,07,05,05,21,6.80
2012,07,05,05,22,6.80
2012,07,05,05,23,6.80
2012,07,05,05,24,6.80
2012,07,05,05,25,6.80
2012,07,05,05,26,6.80
2012,07,05,05,27,6.90
2012,07,05,05,28,6.90
2012,07,05,05,29,6.90
2012,07,05,05,30,7.00
2012,07,05,05,31,7.00
2012,07,05,05,32,7.00
2012,07,05,05,33,7.00
2012,07,05,05,34,7.00
2012,07,05,05,35,7.00
2012,07,05,05,36,7.00
2012,07,05,05,37,7.10
2012,07,05,05,38,7.10
2012,07,05,05,39,7.10
2012,07,05,05,40,7.10
2012,07,05,05,41,7.10
2012,07,05,05,42,7.10
2012,07,05,05,43,7.10
2012,07,05,05,44,7.20
2012,07,05,05,45,7.20
2012,07,05,05,46,7.20
2012,07,05,05,47,7.30
2012,07,05,05,48,7.30
2012,07,05,05,49,7.30
2012,07,05,05,50,7.30
2012,07,05,05,51,7.30
2012,07,05,05,52,7.30
2012,07,05,05,53,7.40
2012,07,05,05,54,7.40
2012,07,05,05,55,7.40
2012,07,05,05,56,7.40
2012,07,05,05,57,7.40
2012,07,05,05,58,7.40
2012,07,05,05,59,7.40
2012,07,05,06,00,7.40
2012,07,05,06,01,7.40
2012,07,05,06,02,7.30
2012,07,05,06,03,7.30
2012,07,05,06,04,7.20
2012,07,05,06,05,7.10
2012,07,05,06,06,7.00
2012,07,05,06,07,7.00
2012,07,05,06,08,7.00
2012,07,05,06,09,6.90
2012,07,05,06,10,7.00
2012,07,05,06,11,7.10
2012,07,05,06,12,7.10
2012,07,05,06,13,7.10
2012,07,05,06,14,7.20
2012,07,05,06,15,7.30
2012,07,05,06,16,7.30
2012,07,05,06,17,7.30
2012,07,05,06,18,7.40
2012,07,05,06,19,7.40
2012,07,05,06,20,7.50
2012,07,05,06,21,7.60
2012,07,05,06,22,7.60
2012,07,05,06,23,7.70
2012,07,05,06,24,7.70
2012,07,05,06,25,7.70
2012,07,05,06,26,7.70
2012,07,05,06,27,7.70
2012,07,05,06,28,7.60
2012,07,05,06,29,7.60
2012,07,05,06,30,7.60
2012,07,05,06,31,7.60
2012,07,05,06,32,7.60
2012,07,05,06,33,7.60
2012,07,05,06,34,7.60
2012,07,05,06,35,7.70
2012,07,05,06,36,7.70
2012,07,05,06,37,7.70
2012,07,05,06,38,7.80
2012,07,05,06,39,7.80
2012,07,05,06,40,7.80
2012,07,05,06,41,7.90
2012,07,05,06,42,8.00
2012,07,05,06,43,8.00
2012,07,05,06,44,8.10
2012,07,05,06,45,8.20
2012,07,05,06,46,8.30
2012,07,05,06,47,8.40
2012,07,05,06,48,8.50
2012,07,05,06,49,8.60
2012,07,05,06,50,8.70
2012,07,05,06,51,8.80
2012,07,05,06,52,8.80
2012,07,05,06,53,8.90
2012,07,05,06,54,9.00
2012,07,05,06,55,9.10
2012,07,05,06,56,9.20
2012,07,05,06,57,9.20
2012,07,05,06,58,9.30
2012,07,05,06,59,9.40
2012,07,05,07,00,9.40
2012,07,05,07,01,9.50
2012,07,05,07,02,9.60
2012,07,05,07,03,9.70
2012,07,05,07,04,9.70
2012,07,05,07,05,9.80
2012,07,05,07,06,9.80
2012,07,05,07,07,9.90
2012,07,05,07,08,10.00
2012,07,05,07,09,10.10
2012,07,05,07,10,10.10
2012,07,05,07,11,10.20
2012,07,05,07,12,10.30
2012,07,05,07,13,10.30
2012,07,05,07,14,10.40
2012,07,05,07,15,10.50
2012,07,05,07,16,10.60
2012,07,05,07,17,10.70
2012,07,05,07,18,10.80
2012,07,05,07,19,11.00
2012,07,05,07,20,11.10
2012,07,05,07,21,11.20
2012,07,05,07,22,11.30
2012,07,05,07,23,11.40
2012,07,05,07,24,11.50
2012,07,05,07,25,11.60
2012,07,05,07,26,11.80
2012,07,05,07,27,11.90
2012,07,05,07,28,12.00
2012,07,05,07,29,12.10
2012,07,05,07,30,12.20
2012,07,05,07,31,12.30
2012,07,05,07,32,12.40
2012,07,05,07,33,12.50
2012,07,05,07,34,12.60
2012,07,05,07,35,12.70
2012,07,05,07,36,12.80
2012,07,05,07,37,12.80
2012,07,05,07,38,12.80
2012,07,05,07,39,12.90
2012,07,05,07,40,12.90
2012,07,05,07,41,12.90
2012,07,05,07,42,12.90
2012,07,05,07,43,13.00
2012,07,05,07,44,13.00
2012,07,05,07,45,13.00
2012,07,05,07,46,13.00
2012,07,05,07,47,13.10
2012,07,05,07,48,13.10
2012,07,05,07,49,13.10
2012,07,05,07,50,13.10
2012,07,05,07,51,13.20
2012,07,05,07,52,13.20
2012,07,05,07,53,13.30
2012,07,05,07,54,13.30
2012,07,05,07,55,13.30
2012,07,05,07,56,13.30
2012,07,05,07,57,13.30
2012,07,05,07,58,13.30
2012,07,05,07,59,13.40
2012,07,05,08,00,13.40
2012,07,05,08,01,13.30
2012,07,05,08,02,13.30
2012,07,05,08,03,13.30
2012,07,05,08,04,13.20
2012,07,05,08,05,13.20
2012,07,05,08,06,13.20
2012,07,05,08,07,13.20
2012,07,05,08,08,13.20
2012,07,05,08,09,13.20
2012,07,05,08,10,13.20
2012,07,05,08,11,13.20
2012,07,05,08,12,13.10
2012,07,05,08,13,13.10
2012,07,05,08,14,13.10
2012,07,05,08,15,13.10
2012,07,05,08,16,13.10
2012,07,05,08,17,13.10
2012,07,05,08,18,13.20
2012,07,05,08,19,13.20
2012,07,05,08,20,13.20
2012,07,05,08,21,13.10
2012,07,05,08,22,13.10
2012,07,05,08,23,13.10
2012,07,05,08,24,13.10
2012,07,05,08,25,13.10
2012,07,05,08,26,13.10
2012,07,05,08,27,13.10
2012,07,05,08,28,13.10
2012,07,05,08,29,13.10
2012,07,05,08,30,13.20
2012,07,05,08,31,13.30
2012,07,05,08,32,13.30
2012,07,05,08,33,13.40
2012,07,05,08,34,13.50
2012,07,05,08,35,13.50
2012,07,05,08,36,13.60
2012,07,05,08,37,13.60
2012,07,05,08,38,13.60
2012,07,05,08,39,13.60
2012,07,05,08,40,13.70
2012,07,05,08,41,13.70
2012,07,05,08,42,13.70
2012,07,05,08,43,13.70
2012,07,05,08,44,13.70
2012,07,05,08,45,13.70
2012,07,05,08,46,13.70
2012,07,05,08,47,13.70
2012,07,05,08,48,13.70
2012,07,05,08,49,13.80
2012,07,05,08,50,13.80
2012,07,05,08,51,13.90
2012,07,05,08,52,14.00
2012,07,05,08,53,14.00
2012,07,05,08,54,14.00
2012,07,05,08,55,14.00
2012,07,05,08,56,14.10
2012,07,05,08,57,14.20
2012,07,05,08,58,14.10
2012,07,05,08,59,14.00
2012,07,05,09,00,14.00
2012,07,05,09,01,14.00
2012,07,05,09,02,13.90
2012,07,05,09,03,13.90
2012,07,05,09,04,13.90
2012,07,05,09,05,13.90
2012,07,05,09,06,14.00
2012,07,05,09,07,14.00
2012,07,05,09,08,14.00
2012,07,05,09,09,14.00
2012,07,05,09,10,14.00
2012,07,05,09,11,14.00
2012,07,05,09,12,14.10
2012,07,05,09,13,14.20
2012,07,05,09,14,14.20
2012,07,05,09,15,14.20
2012,07,05,09,16,14.20
2012,07,05,09,17,14.20
2012,07,05,09,18,14.20
2012,07,05,09,19,14.20
2012,07,05,09,20,14.20
2012,07,05,09,21,14.20
2012,07,05,09,22,14.20
2012,07,05,09,23,14.20
2012,07,05,09,24,14.20
2012,07,05,09,25,14.20
2012,07,05,09,26,14.20
2012,07,05,09,27,14.20
2012,07,05,09,28,14.30
2012,07,05,09,29,14.40
2012,07,05,09,30,14.50
2012,07,05,09,31,14.60
2012,07,05,09,32,14.60
2012,07,05,09,33,14.60
2012,07,05,09,34,14.70
2012,07,05,09,35,14.60
2012,07,05,09,36,14.50
2012,07,05,09,37,14.40
2012,07,05,09,38,14.30
2012,07,05,09,39,14.30
2012,07,05,09,40,14.30
2012,07,05,09,41,14.40
2012,07,05,09,42,14.40
2012,07,05,09,43,14.50
2012,07,05,09,44,14.60
2012,07,05,09,45,14.70
2012,07,05,09,46,14.80
2012,07,05,09,47,14.80
2012,07,05,09,48,14.90
2012,07,05,09,49,14.90
2012,07,05,09,50,15.00
2012,07,05,09,51,15.10
2012,07,05,09,52,15.20
2012,07,05,09,53,15.20
2012,07,05,09,54,15.30
2012,07,05,09,55,15.30
2012,07,05,09,56,15.30
2012,07,05,09,57,15.30
2012,07,05,09,58,15.20
2012,07,05,09,59,15.20
2012,07,05,10,00,15.20
2012,07,05,10,01,15.20
2012,07,05,10,02,15.20
2012,07,05,10,03,15.30
2012,07,05,10,04,15.40
2012,07,05,10,05,15.50
2012,07,05,10,06,15.50
2012,07,05,10,07,15.50
2012,07,05,10,08,15.60
2012,07,05,10,09,15.50
2012,07,05,10,10,15.50
2012,07,05,10,11,15.50
2012,07,05,10,12,15.50
2012,07,05,10,13,15.50
2012,07,05,10,14,15.50
2012,07,05,10,15,15.50
2012,07,05,10,16,15.50
2012,07,05,10,17,15.50
2012,07,05,10,18,15.50
2012,07,05,10,19,15.50
2012,07,05,10,20,15.40
2012,07,05,10,21,15.40
2012,07,05,10,22,15.40
2012,07,05,10,23,15.50
2012,07,05,10,24,15.50
2012,07,05,10,25,15.50
2012,07,05,10,26,15.50
2012,07,05,10,27,15.50
2012,07,05,10,28,15.50
2012,07,05,10,29,15.50
2012,07,05,10,30,15.50
2012,07,05,10,31,15.50
2012,07,05,10,32,15.50
2012,07,05,10,33,15.60
2012,07,05,10,34,15.60
2012,07,05,10,35,15.60
2012,07,05,10,36,15.60
2012,07,05,10,37,15.60
2012,07,05,10,38,15.60
2012,07,05,10,39,15.60
2012,07,05,10,40,15.60
2012,07,05,10,41,15.60
2012,07,05,10,42,15.60
2012,07,05,10,43,15.60
2012,07,05,10,44,15.70
2012,07,05,10,45,15.80
2012,07,05,10,46,15.90
2012,07,05,10,47,15.90
2012,07,05,10,48,16.00
2012,07,05,10,49,16.10
2012,07,05,10,50,16.20
2012,07,05,10,51,16.20
2012,07,05,10,52,16.20
2012,07,05,10,53,16.20
2012,07,05,10,54,16.20
2012,07,05,10,55,16.30
2012,07,05,10,56,16.30
2012,07,05,10,57,16.40
2012,07,05,10,58,16.40
2012,07,05,10,59,16.40
2012,07,05,11,00,16.40
2012,07,05,11,01,16.40
2012,07,05,11,02,16.50
2012,07,05,11,03,16.60
2012,07,05,11,04,16.60
2012,07,05,11,05,16.50
2012,07,05,11,06,16.40
2012,07,05,11,07,16.40
2012,07,05,11,08,16.40
2012,07,05,11,09,16.40
2012,07,05,11,10,16.40
2012,07,05,11,11,16.40
2012,07,05,11,12,16.40
2012,07,05,11,13,16.40
2012,07,05,11,14,16.40
2012,07,05,11,15,16.40
2012,07,05,11,16,16.50
2012,07,05,11,17,16.60
2012,07,05,11,18,16.70
2012,07,05,11,19,16.70
2012,07,05,11,20,16.70
2012,07,05,11,21,16.70
2012,07,05,11,22,16.80
2012,07,05,11,23,16.90
2012,07,05,11,24,17.00
2012,07,05,11,25,17.00
2012,07,05,11,26,17.10
2012,07,05,11,27,17.10
2012,07,05,11,28,17.10
2012,07,05,11,29,17.10
2012,07,05,11,30,17.10
2012,07,05,11,31,17.10
2012,07,05,11,32,17.20
2012,07,05,11,33,17.20
2012,07,05,11,34,17.20
2012,07,05,11,35,17.20
2012,07,05,11,36,17.30
2012,07,05,11,37,17.30
2012,07,05,11,38,17.30
2012,07,05,11,39,17.40
2012,07,05,11,40,17.40
2012,07,05,11,41,17.50
2012,07,05,11,42,17.50
2012,07,05,11,43,17.50
2012,07,05,11,44,17.50
2012,07,05,11,45,17.40
2012,07,05,11,46,17.50
2012,07,05,11,47,17.60
2012,07,05,11,48,17.60
2012,07,05,11,49,17.60
2012,07,05,11,50,17.60
2012,07,05,11,51,17.60
2012,07,05,11,52,17.60
2012,07,05,11,53,17.60
2012,07,05,11,54,17.60
2012,07,05,11,55,17.50
2012,07,05,11,56,17.50
2012,07,05,11,57,17.40
2012,07,05,11,58,17.30
2012,07,05,11,59,17.30
2012,07,05,12,00,17.30
2012,07,05,12,01,17.30
2012,07,05,12,02,17.20
2012,07,05,12,03,17.10
2012,07,05,12,04,17.10
2012,07,05,12,05,17.00
2012,07,05,12,06,17.00
2012,07,05,12,07,17.00
2012,07,05,12,08,16.90
2012,07,05,12,09,16.90
2012,07,05,12,10,16.90
2012,07,05,12,11,16.90
2012,07,05,12,12,16.90
2012,07,05,12,13,16.90
2012,07,05,12,14,16.90
2012,07,05,12,15,16.90
2012,07,05,12,16,16.90
2012,07,05,12,17,16.90
2012,07,05,12,18,17.00
2012,07,05,12,19,17.00
2012,07,05,12,20,17.00
2012,07,05,12,21,17.00
2012,07,05,12,22,17.10
2012,07,05,12,23,17.20
2012,07,05,12,24,17.30
2012,07,05,12,25,17.50
2012,07,05,12,26,17.60
2012,07,05,12,27,17.80
2012,07,05,12,28,17.80
2012,07,05,12,29,17.80
2012,07,05,12,30,17.80
2012,07,05,12,31,17.80
2012,07,05,12,32,17.80
2012,07,05,12,33,17.90
2012,07,05,12,34,18.00
2012,07,05,12,35,18.10
2012,07,05,12,36,18.10
2012,07,05,12,37,18.10
2012,07,05,12,38,18.20
2012,07,05,12,39,18.20
2012,07,05,12,40,18.30
2012,07,05,12,41,18.30
2012,07,05,12,42,18.30
2012,07,05,12,43,18.30
2012,07,05,12,44,18.30
2012,07,05,12,45,18.30
2012,07,05,12,46,18.30
2012,07,05,12,47,18.30
2012,07,05,12,48,18.20
2012,07,05,12,49,18.30
2012,07,05,12,50,18.30
2012,07,05,12,51,18.30
2012,07,05,12,52,18.40
2012,07,05,12,53,18.30
2012,07,05,12,54,18.30
2012,07,05,12,55,18.40
2012,07,05,12,56,18.40
2012,07,05,12,57,18.40
2012,07,05,12,58,18.40
2012,07,05,12,59,18.40
2012,07,05,13,00,18.40
2012,07,05,13,01,18.40
2012,07,05,13,02,18.40
2012,07,05,13,03,18.50
2012,07,05,13,04,18.50
2012,07,05,13,05,18.60
2012,07,05,13,06,18.60
2012,07,05,13,07,18.70
2012,07,05,13,08,18.70
2012,07,05,13,09,18.80
2012,07,05,13,10,18.80
2012,07,05,13,11,18.80
2012,07,05,13,12,18.80
2012,07,05,13,13,18.90
2012,07,05,13,14,18.90
2012,07,05,13,15,19.00
2012,07,05,13,16,19.10
2012,07,05,13,17,19.10
2012,07,05,13,18,19.10
2012,07,05,13,19,19.10
2012,07,05,13,20,19.10
2012,07,05,13,21,19.10
2012,07,05,13,22,19.00
2012,07,05,13,23,18.90
2012,07,05,13,24,18.90
2012,07,05,13,25,18.90
2012,07,05,13,26,18.90
2012,07,05,13,27,18.90
2012,07,05,13,28,18.90
2012,07,05,13,29,19.00
2012,07,05,13,30,19.10
2012,07,05,13,31,19.10
2012,07,05,13,32,19.00
2012,07,05,13,33,18.90
2012,07,05,13,34,18.90
2012,07,05,13,35,18.70
2012,07,05,13,36,18.70
2012,07,05,13,37,18.60
2012,07,05,13,38,18.60
2012,07,05,13,39,18.60
2012,07,05,13,40,18.60
2012,07,05,13,41,18.60
2012,07,05,13,42,18.70
2012,07,05,13,43,18.80
2012,07,05,13,44,18.90
2012,07,05,13,45,18.90
2012,07,05,13,46,18.90
2012,07,05,13,47,19.00
2012,07,05,13,48,19.10
2012,07,05,13,49,19.00
2012,07,05,13,50,18.90
2012,07,05,13,51,18.90
2012,07,05,13,52,19.00
2012,07,05,13,53,19.10
2012,07,05,13,54,19.10
2012,07,05,13,55,19.00
2012,07,05,13,56,19.10
2012,07,05,13,57,19.10
2012,07,05,13,58,19.10
2012,07,05,13,59,19.10
2012,07,05,14,00,19.10
2012,07,05,14,01,19.10
2012,07,05,14,02,19.10
2012,07,05,14,03,19.10
2012,07,05,14,04,19.10
2012,07,05,14,05,19.10
2012,07,05,14,06,19.10
2012,07,05,14,07,19.20
2012,07,05,14,08,19.20
2012,07,05,14,09,19.20
2012,07,05,14,10,19.20
2012,07,05,14,11,19.10
2012,07,05,14,12,19.10
2012,07,05,14,13,19.00
2012,07,05,14,14,18.90
2012,07,05,14,15,18.90
2012,07,05,14,16,18.90
2012,07,05,14,17,18.80
2012,07,05,14,18,18.80
2012,07,05,14,19,18.90
2012,07,05,14,20,19.00
2012,07,05,14,21,19.10
2012,07,05,14,22,19.20
2012,07,05,14,23,19.30
2012,07,05,14,24,19.40
2012,07,05,14,25,19.40
2012,07,05,14,26,19.50
2012,07,05,14,27,19.50
2012,07,05,14,28,19.50
2012,07,05,14,29,19.50
2012,07,05,14,30,19.50
2012,07,05,14,31,19.50
2012,07,05,14,32,19.60
2012,07,05,14,33,19.60
2012,07,05,14,34,19.40
2012,07,05,14,35,19.30
2012,07,05,14,36,19.30
2012,07,05,14,37,19.20
2012,07,05,14,38,19.20
2012,07,05,14,39,19.10
2012,07,05,14,40,19.10
2012,07,05,14,41,19.10
2012,07,05,14,42,19.20
2012,07,05,14,43,19.20
2012,07,05,14,44,19.20
2012,07,05,14,45,19.30
2012,07,05,14,46,19.30
2012,07,05,14,47,19.30
2012,07,05,14,48,19.10
2012,07,05,14,49,19.10
2012,07,05,14,50,19.10
2012,07,05,14,51,19.10
2012,07,05,14,52,19.10
2012,07,05,14,53,19.10
2012,07,05,14,54,19.10
2012,07,05,14,55,19.10
2012,07,05,14,56,19.10
2012,07,05,14,57,19.10
2012,07,05,14,58,19.00
2012,07,05,14,59,18.90
2012,07,05,15,00,18.90
2012,07,05,15,01,19.00
2012,07,05,15,02,19.00
2012,07,05,15,03,18.90
2012,07,05,15,04,18.90
2012,07,05,15,05,18.90
2012,07,05,15,06,18.80
2012,07,05,15,07,18.80
2012,07,05,15,08,18.80
2012,07,05,15,09,18.80
2012,07,05,15,10,18.90
2012,07,05,15,11,18.90
2012,07,05,15,12,18.90
2012,07,05,15,13,18.90
2012,07,05,15,14,18.90
2012,07,05,15,15,18.90
2012,07,05,15,16,18.90
2012,07,05,15,17,18.90
2012,07,05,15,18,18.90
2012,07,05,15,19,19.00
2012,07,05,15,20,19.10
2012,07,05,15,21,19.10
2012,07,05,15,22,19.10
2012,07,05,15,23,19.20
2012,07,05,15,24,19.30
2012,07,05,15,25,19.30
2012,07,05,15,26,19.30
2012,07,05,15,27,19.30
2012,07,05,15,28,19.40
2012,07,05,15,29,19.40
2012,07,05,15,30,19.50
2012,07,05,15,31,19.50
2012,07,05,15,32,19.50
2012,07,05,15,33,19.50
2012,07,05,15,34,19.50
2012,07,05,15,35,19.50
2012,07,05,15,36,19.50
2012,07,05,15,37,19.50
2012,07,05,15,38,19.60
2012,07,05,15,39,19.70
2012,07,05,15,40,19.80
2012,07,05,15,41,19.80
2012,07,05,15,42,19.80
2012,07,05,15,43,19.90
2012,07,05,15,44,19.90
2012,07,05,15,45,19.90
2012,07,05,15,46,19.90
2012,07,05,15,47,20.00
2012,07,05,15,48,20.10
2012,07,05,15,49,20.00
2012,07,05,15,50,20.00
2012,07,05,15,51,20.00
2012,07,05,15,52,20.10
2012,07,05,15,53,20.10
2012,07,05,15,54,20.10
2012,07,05,15,55,20.20
2012,07,05,15,56,20.20
2012,07,05,15,57,20.20
2012,07,05,15,58,20.20
2012,07,05,15,59,20.20
2012,07,05,16,00,20.20
2012,07,05,16,01,20.30
2012,07,05,16,02,20.30
2012,07,05,16,03,20.40
2012,07,05,16,04,20.50
2012,07,05,16,05,20.60
2012,07,05,16,06,20.70
2012,07,05,16,07,20.80
2012,07,05,16,08,20.80
2012,07,05,16,09,20.80
2012,07,05,16,10,20.80
2012,07,05,16,11,20.90
2012,07,05,16,12,20.90
2012,07,05,16,13,21.00
2012,07,05,16,14,20.90
2012,07,05,16,15,20.90
2012,07,05,16,16,20.80
2012,07,05,16,17,20.80
2012,07,05,16,18,20.70
2012,07,05,16,19,20.60
2012,07,05,16,20,20.60
2012,07,05,16,21,20.60
2012,07,05,16,22,20.60
2012,07,05,16,23,20.50
2012,07,05,16,24,20.50
2012,07,05,16,25,20.50
2012,07,05,16,26,20.50
2012,07,05,16,27,20.60
2012,07,05,16,28,20.60
2012,07,05,16,29,20.60
2012,07,05,16,30,20.80
2012,07,05,16,31,20.80
2012,07,05,16,32,20.90
2012,07,05,16,33,20.90
2012,07,05,16,34,21.00
2012,07,05,16,35,21.10
2012,07,05,16,36,21.10
2012,07,05,16,37,21.00
2012,07,05,16,38,20.90
2012,07,05,16,39,20.80
2012,07,05,16,40,20.80
2012,07,05,16,41,20.70
2012,07,05,16,42,20.60
2012,07,05,16,43,20.50
2012,07,05,16,44,20.50
2012,07,05,16,45,20.40
2012,07,05,16,46,20.40
2012,07,05,16,47,20.50
2012,07,05,16,48,20.50
2012,07,05,16,49,20.50
2012,07,05,16,50,20.60
2012,07,05,16,51,20.60
2012,07,05,16,52,20.70
2012,07,05,16,53,20.80
2012,07,05,16,54,20.90
2012,07,05,16,55,20.90
2012,07,05,16,56,20.90
2012,07,05,16,57,20.90
2012,07,05,16,58,20.90
2012,07,05,16,59,21.00
2012,07,05,17,00,21.00
2012,07,05,17,01,21.10
2012,07,05,17,02,21.10
2012,07,05,17,03,21.20
2012,07,05,17,04,21.20
2012,07,05,17,05,21.20
2012,07,05,17,06,21.20
2012,07,05,17,07,21.20
2012,07,05,17,08,21.20
2012,07,05,17,09,21.10
2012,07,05,17,10,21.10
2012,07,05,17,11,21.00
2012,07,05,17,12,21.00
2012,07,05,17,13,21.10
2012,07,05,17,14,21.00
2012,07,05,17,15,21.00
2012,07,05,17,16,21.00
2012,07,05,17,17,21.00
2012,07,05,17,18,21.10
2012,07,05,17,19,21.10
2012,07,05,17,20,21.10
2012,07,05,17,21,21.10
2012,07,05,17,22,21.20
2012,07,05,17,23,21.20
2012,07,05,17,24,21.30
2012,07,05,17,25,21.30
2012,07,05,17,26,21.40
2012,07,05,17,27,21.40
2012,07,05,17,28,21.60
2012,07,05,17,29,21.60
2012,07,05,17,30,21.60
2012,07,05,17,31,21.60
2012,07,05,17,32,21.60
2012,07,05,17,33,21.60
2012,07,05,17,34,21.50
2012,07,05,17,35,21.30